Tracking 35274 objects as of 12-Sep-2026
HD Live streaming from Space Station
objects crossing your sky now

FLOCK 4BE 7

Track FLOCK 4BE 7 now!
10-day predictions
FLOCK 4BE 7 is classified as:


NORAD ID: 60481
Int'l Code: 2024-149P
Launch date: August 16, 2024
Source: United States (US)
Launch site: AIR FORCE WESTERN TEST RANGE (AFWTR)
Your satellite tracking list
Your tracking list is empty




NASA's NSSDC Master Catalog

Two Line Element Set (TLE):
1 60481U 24149P   26255.17226087  .00028308  00000-0  62438-3 0  9999
2 60481  97.3719 339.1774 0001440 319.3195  40.7946 15.43867507115655
Source of the keplerian elements: AFSPC